| time (UTC) | temp F | wind direction | speed MPH | gust MPH | rain 1hr in | rain 24hr in | rain mn in | humidity % | barometer mb |
| 20260902031152 | 82 | 94 | 0.0 | 6.0 | 0.00 | 0.00 | 0.00 | 82 | 1013.8 |
| 20260902030152 | 82 | 94 | 2.0 | 6.0 | 0.00 | 0.00 | 0.00 | 82 | 1013.8 |
| 20260902025652 | 82 | 94 | 0.0 | 3.0 | 0.00 | 0.00 | 0.00 | 82 | 1013.7 |
| 20260902025152 | 82 | 94 | 2.0 | 3.0 | 0.00 | 0.00 | 0.00 | 82 | 1013.7 |
| 20260902024652 | 82 | 94 | 0.0 | 3.0 | 0.00 | 0.00 | 0.00 | 82 | 1013.7 |
| 20260902024152 | 82 | 94 | 0.0 | 3.0 | 0.00 | 0.00 | 0.00 | 82 | 1013.6 |
| 20260902023652 | 82 | 94 | 0.0 | 3.0 | 0.00 | 0.00 | 0.00 | 82 | 1013.6 |
| 20260902023151 | 82 | 94 | 0.0 | 4.0 | 0.00 | 0.00 | 0.00 | 82 | 1013.6 |
| 20260902022152 | 83 | 94 | 2.0 | 4.0 | 0.00 | 0.00 | 0.00 | 81 | 1013.6 |
| 20260902021651 | 83 | 94 | 0.0 | 4.0 | 0.00 | 0.00 | 0.00 | 81 | 1013.6 |
| 20260902021151 | 83 | 94 | 2.0 | 5.0 | 0.00 | 0.00 | 0.00 | 81 | 1013.5 |
| 20260902020651 | 82 | 94 | 1.0 | 5.0 | 0.00 | 0.00 | 0.00 | 81 | 1013.5 |
| 20260902015651 | 82 | 94 | 2.0 | 5.0 | 0.00 | 0.00 | 0.00 | 82 | 1013.3 |
| 20260902015151 | 82 | 94 | 0.0 | 5.0 | 0.00 | 0.00 | 0.00 | 82 | 1013.3 |
| 20260902014651 | 82 | 94 | 1.0 | 5.0 | 0.00 | 0.00 | 0.00 | 82 | 1013.2 |
| 20260902013651 | 83 | 94 | 0.0 | 8.0 | 0.00 | 0.00 | 0.00 | 82 | 1013.1 |
| 20260902013151 | 83 | 94 | 1.0 | 8.0 | 0.00 | 0.00 | 0.00 | 81 | 1013.0 |
| 20260902012651 | 83 | 94 | 3.0 | 6.0 | 0.00 | 0.00 | 0.00 | 81 | 1012.9 |
| 20260902012151 | 84 | 94 | 0.0 | 5.0 | 0.00 | 0.00 | 0.00 | 80 | 1012.8 |
| 20260902011151 | 85 | 94 | 0.0 | 4.0 | 0.00 | 0.00 | 0.00 | 79 | 1012.8 |
| 20260902010150 | 85 | 94 | 0.0 | 5.0 | 0.00 | 0.00 | 0.00 | 79 | 1012.8 |
| 20260902005150 | 86 | 94 | 0.0 | 3.0 | 0.00 | 0.00 | 0.00 | 78 | 1012.6 |
| 20260902004650 | 86 | 94 | 0.0 | 3.0 | 0.00 | 0.00 | 0.00 | 77 | 1012.6 |
| 20260902004150 | 86 | 94 | 0.0 | 2.0 | 0.00 | 0.00 | 0.00 | 77 | 1012.6 |
| 20260902003650 | 86 | 94 | 0.0 | 4.0 | 0.00 | 0.00 | 0.00 | 77 | 1012.5 |
| 20260902003150 | 87 | 94 | 0.0 | 4.0 | 0.00 | 0.00 | 0.00 | 76 | 1012.6 |
| 20260902002650 | 87 | 94 | 1.0 | 4.0 | 0.00 | 0.00 | 0.00 | 75 | 1012.8 |
| 20260902002150 | 88 | 94 | 3.0 | 4.0 | 0.00 | 0.00 | 0.00 | 74 | 1012.8 |
| 20260902001650 | 88 | 94 | 2.0 | 3.0 | 0.00 | 0.00 | 0.00 | 74 | 1012.8 |
| 20260902001150 | 89 | 94 | 1.0 | 4.0 | 0.00 | 0.00 | 0.00 | 74 | 1012.8 |
| 20260902000650 | 89 | 94 | 0.0 | 4.0 | 0.00 | 0.00 | 0.00 | 73 | 1012.8 |
| 20260901235650 | 90 | 94 | 0.0 | 4.0 | 0.00 | 0.00 | 0.00 | 73 | 1012.8 |
| 20260901235149 | 91 | 94 | 0.0 | 4.0 | 0.00 | 0.00 | 0.00 | 72 | 1012.8 |
| 20260901234649 | 91 | 94 | 0.0 | 3.0 | 0.00 | 0.00 | 0.00 | 72 | 1012.8 |
| 20260901234149 | 92 | 94 | 1.0 | 3.0 | 0.00 | 0.00 | 0.00 | 71 | 1013.0 |
| 20260901233649 | 93 | 94 | 1.0 | 3.0 | 0.00 | 0.00 | 0.00 | 70 | 1013.0 |
| 20260901233149 | 93 | 94 | 1.0 | 3.0 | 0.00 | 0.00 | 0.00 | 69 | 1012.9 |
| 20260901232649 | 94 | 94 | 0.0 | 3.0 | 0.00 | 0.00 | 0.00 | 67 | 1013.0 |
| 20260901231649 | 96 | 94 | 0.0 | 4.0 | 0.00 | 0.00 | 0.00 | 64 | 1013.0 |
| 20260901230649 | 96 | 94 | 1.0 | 3.0 | 0.00 | 0.00 | 0.00 | 63 | 1013.1 |
| 20260901225649 | 96 | 94 | 0.0 | 4.0 | 0.00 | 0.00 | 0.00 | 62 | 1013.1 |
| 20260901225149 | 96 | 94 | 1.0 | 4.0 | 0.00 | 0.00 | 0.00 | 61 | 1013.1 |
| 20260901224649 | 97 | 94 | 1.0 | 3.0 | 0.00 | 0.00 | 0.00 | 61 | 1013.1 |
| 20260901223648 | 96 | 94 | 0.0 | 6.0 | 0.00 | 0.00 | 0.00 | 59 | 1013.1 |
| 20260901223148 | 96 | 94 | 1.0 | 6.0 | 0.00 | 0.00 | 0.00 | 58 | 1013.2 |
| 20260901222648 | 96 | 94 | 0.0 | 7.0 | 0.00 | 0.00 | 0.00 | 58 | 1013.2 |
| 20260901222148 | 96 | 94 | 1.0 | 8.0 | 0.00 | 0.00 | 0.00 | 58 | 1013.2 |
| 20260901220648 | 97 | 94 | 2.0 | 4.0 | 0.00 | 0.00 | 0.00 | 61 | 1013.2 |
| 20260901215648 | 97 | 94 | 3.0 | 6.0 | 0.00 | 0.00 | 0.00 | 60 | 1013.3 |
| 20260901215148 | 97 | 94 | 2.0 | 6.0 | 0.00 | 0.00 | 0.00 | 58 | 1013.3 |
| 20260901214647 | 97 | 94 | 3.0 | 5.0 | 0.00 | 0.00 | 0.00 | 57 | 1013.3 |
| 20260901214148 | 97 | 94 | 1.0 | 4.0 | 0.00 | 0.00 | 0.00 | 59 | 1013.2 |
| 20260901213648 | 97 | 94 | 2.0 | 4.0 | 0.00 | 0.00 | 0.00 | 58 | 1013.1 |
| 20260901213147 | 97 | 94 | 2.0 | 4.0 | 0.00 | 0.00 | 0.00 | 58 | 1013.2 |
| 20260901212147 | 96 | 94 | 1.0 | 6.0 | 0.00 | 0.00 | 0.00 | 59 | 1013.1 |
| 20260901205648 | 95 | 94 | 1.0 | 11.0 | 0.00 | 0.00 | 0.00 | 60 | 1013.2 |
| 20260901204647 | 96 | 94 | 2.0 | 11.0 | 0.00 | 0.00 | 0.00 | 60 | 1013.3 |
| 20260901204147 | 96 | 94 | 4.0 | 11.0 | 0.00 | 0.00 | 0.00 | 60 | 1013.4 |
| 20260901203647 | 96 | 94 | 1.0 | 6.0 | 0.00 | 0.00 | 0.00 | 62 | 1013.4 |
| 20260901203147 | 95 | 94 | 0.0 | 9.0 | 0.00 | 0.00 | 0.00 | 61 | 1013.4 |
| 20260901202647 | 96 | 94 | 1.0 | 9.0 | 0.00 | 0.00 | 0.00 | 60 | 1013.5 |
| 20260901202147 | 96 | 94 | 1.0 | 8.0 | 0.00 | 0.00 | 0.00 | 61 | 1013.5 |
| 20260901201647 | 95 | 94 | 1.0 | 9.0 | 0.00 | 0.00 | 0.00 | 63 | 1013.5 |
| 20260901200646 | 96 | 94 | 2.0 | 6.0 | 0.00 | 0.00 | 0.00 | 61 | 1013.6 |
| 20260901200146 | 95 | 94 | 0.0 | 7.0 | 0.00 | 0.00 | 0.00 | 61 | 1013.6 |
| 20260901195646 | 95 | 94 | 2.0 | 7.0 | 0.00 | 0.00 | 0.00 | 60 | 1013.6 |
| 20260901195146 | 95 | 94 | 2.0 | 8.0 | 0.00 | 0.00 | 0.00 | 60 | 1013.7 |
| 20260901194646 | 95 | 94 | 6.0 | 9.0 | 0.00 | 0.00 | 0.00 | 60 | 1013.7 |
| 20260901193646 | 95 | 94 | 3.0 | 13.0 | 0.00 | 0.00 | 0.00 | 59 | 1013.7 |
| 20260901192146 | 95 | 94 | 1.0 | 8.0 | 0.00 | 0.00 | 0.00 | 60 | 1013.7 |
| 20260901191646 | 95 | 94 | 6.0 | 7.0 | 0.00 | 0.00 | 0.00 | 61 | 1013.7 |
| 20260901191146 | 95 | 94 | 3.0 | 8.0 | 0.00 | 0.00 | 0.00 | 61 | 1013.8 |
| 20260901190646 | 95 | 94 | 2.0 | 8.0 | 0.00 | 0.00 | 0.00 | 62 | 1013.8 |
| 20260901190146 | 95 | 94 | 2.0 | 9.0 | 0.00 | 0.00 | 0.00 | 61 | 1013.9 |
| 20260901185645 | 95 | 94 | 2.0 | 9.0 | 0.00 | 0.00 | 0.00 | 60 | 1013.9 |
| 20260901185145 | 95 | 94 | 3.0 | 8.0 | 0.00 | 0.00 | 0.00 | 61 | 1014.0 |
| 20260901184145 | 96 | 94 | 5.0 | 8.0 | 0.00 | 0.00 | 0.00 | 60 | 1013.9 |
| 20260901183145 | 95 | 94 | 1.0 | 9.0 | 0.00 | 0.00 | 0.00 | 61 | 1014.0 |
| 20260901182646 | 95 | 94 | 4.0 | 9.0 | 0.00 | 0.00 | 0.00 | 60 | 1013.9 |
| 20260901182145 | 95 | 94 | 2.0 | 7.0 | 0.00 | 0.00 | 0.00 | 62 | 1014.0 |
| 20260901181645 | 95 | 94 | 1.0 | 7.0 | 0.00 | 0.00 | 0.00 | 61 | 1014.1 |
| 20260901181145 | 95 | 94 | 2.0 | 9.0 | 0.00 | 0.00 | 0.00 | 63 | 1014.0 |
| 20260901180645 | 95 | 94 | 4.0 | 9.0 | 0.00 | 0.00 | 0.00 | 63 | 1014.0 |
| 20260901180145 | 94 | 94 | 5.0 | 8.0 | 0.00 | 0.00 | 0.00 | 63 | 1014.1 |
| 20260901175645 | 94 | 94 | 5.0 | 9.0 | 0.00 | 0.00 | 0.00 | 63 | 1014.2 |
| 20260901175145 | 94 | 94 | 2.0 | 10.0 | 0.00 | 0.00 | 0.00 | 62 | 1014.2 |
| 20260901174645 | 94 | 94 | 2.0 | 10.0 | 0.00 | 0.00 | 0.00 | 62 | 1014.2 |
| 20260901174144 | 94 | 94 | 2.0 | 10.0 | 0.00 | 0.00 | 0.00 | 64 | 1014.2 |
| 20260901173644 | 94 | 94 | 1.0 | 7.0 | 0.00 | 0.00 | 0.00 | 64 | 1014.2 |
| 20260901173144 | 94 | 94 | 3.0 | 7.0 | 0.00 | 0.00 | 0.00 | 64 | 1014.4 |
| 20260901172644 | 93 | 94 | 1.0 | 6.0 | 0.00 | 0.00 | 0.00 | 65 | 1014.4 |
| 20260901171644 | 93 | 94 | 2.0 | 8.0 | 0.00 | 0.00 | 0.00 | 67 | 1014.5 |
| 20260901171144 | 93 | 94 | 6.0 | 8.0 | 0.00 | 0.00 | 0.00 | 67 | 1014.4 |
| 20260901170644 | 93 | 94 | 0.0 | 7.0 | 0.00 | 0.00 | 0.00 | 69 | 1014.4 |
| 20260901170144 | 93 | 94 | 6.0 | 7.0 | 0.00 | 0.00 | 0.00 | 70 | 1014.5 |
| 20260901165644 | 93 | 94 | 1.0 | 7.0 | 0.00 | 0.00 | 0.00 | 70 | 1014.5 |
| 20260901164644 | 92 | 94 | 3.0 | 7.0 | 0.00 | 0.00 | 0.00 | 70 | 1014.5 |
| 20260901164143 | 92 | 94 | 4.0 | 9.0 | 0.00 | 0.00 | 0.00 | 71 | 1014.5 |
| 20260901163644 | 92 | 94 | 6.0 | 9.0 | 0.00 | 0.00 | 0.00 | 69 | 1014.5 |
| 20260901163144 | 92 | 94 | 1.0 | 8.0 | 0.00 | 0.00 | 0.00 | 72 | 1014.4 |
| 20260901162644 | 92 | 94 | 2.0 | 7.0 | 0.00 | 0.00 | 0.00 | 72 | 1014.4 |
| 20260901162144 | 91 | 94 | 3.0 | 7.0 | 0.00 | 0.00 | 0.00 | 71 | 1014.4 |
| 20260901161643 | 91 | 94 | 0.0 | 5.0 | 0.00 | 0.00 | 0.00 | 73 | 1014.5 |
| 20260901161143 | 91 | 94 | 3.0 | 5.0 | 0.00 | 0.00 | 0.00 | 74 | 1014.5 |
| 20260901160643 | 90 | 94 | 2.0 | 6.0 | 0.00 | 0.00 | 0.00 | 73 | 1014.4 |
| 20260901160143 | 90 | 94 | 5.0 | 6.0 | 0.00 | 0.00 | 0.00 | 73 | 1014.4 |
| 20260901155643 | 90 | 94 | 2.0 | 6.0 | 0.00 | 0.00 | 0.00 | 73 | 1014.5 |
| 20260901155143 | 89 | 94 | 1.0 | 8.0 | 0.00 | 0.00 | 0.00 | 74 | 1014.6 |
| 20260901154643 | 89 | 94 | 4.0 | 8.0 | 0.00 | 0.00 | 0.00 | 74 | 1014.6 |
| 20260901154143 | 89 | 94 | 2.0 | 7.0 | 0.00 | 0.00 | 0.00 | 74 | 1014.6 |
| 20260901153643 | 89 | 94 | 2.0 | 7.0 | 0.00 | 0.00 | 0.00 | 74 | 1014.6 |
| 20260901153143 | 89 | 94 | 2.0 | 4.0 | 0.00 | 0.00 | 0.00 | 76 | 1014.7 |
| 20260901152642 | 88 | 94 | 3.0 | 4.0 | 0.00 | 0.00 | 0.00 | 75 | 1014.7 |
| 20260901152143 | 88 | 94 | 0.0 | 3.0 | 0.00 | 0.00 | 0.00 | 78 | 1014.8 |
| 20260901151642 | 87 | 94 | 2.0 | 6.0 | 0.00 | 0.00 | 0.00 | 76 | 1014.9 |
| 20260901151142 | 87 | 94 | 3.0 | 6.0 | 0.00 | 0.00 | 0.00 | 76 | 1014.9 |
| 20260901150642 | 87 | 94 | 0.0 | 4.0 | 0.00 | 0.00 | 0.00 | 76 | 1014.8 |
| 20260901150142 | 86 | 94 | 1.0 | 6.0 | 0.00 | 0.00 | 0.00 | 77 | 1014.7 |
| 20260901145643 | 86 | 94 | 2.0 | 6.0 | 0.00 | 0.00 | 0.00 | 77 | 1014.7 |
| 20260901145142 | 85 | 94 | 2.0 | 4.0 | 0.00 | 0.00 | 0.00 | 78 | 1014.7 |
| 20260901144142 | 85 | 94 | 1.0 | 5.0 | 0.00 | 0.00 | 0.00 | 77 | 1014.7 |
| 20260901143642 | 85 | 94 | 0.0 | 5.0 | 0.00 | 0.00 | 0.00 | 80 | 1014.7 |
| 20260901143142 | 84 | 94 | 2.0 | 5.0 | 0.00 | 0.00 | 0.00 | 80 | 1014.6 |
| 20260901142642 | 83 | 94 | 4.0 | 5.0 | 0.00 | 0.00 | 0.00 | 81 | 1014.7 |
| 20260901142142 | 83 | 94 | 0.0 | 5.0 | 0.00 | 0.00 | 0.00 | 82 | 1014.7 |
| 20260901141642 | 82 | 94 | 0.0 | 5.0 | 0.00 | 0.00 | 0.00 | 82 | 1014.6 |
| 20260901141141 | 82 | 94 | 1.0 | 4.0 | 0.00 | 0.00 | 0.00 | 82 | 1014.6 |
| 20260901140141 | 81 | 94 | 2.0 | 3.0 | 0.00 | 0.00 | 0.00 | 84 | 1014.5 |
| 20260901135642 | 80 | 94 | 0.0 | 4.0 | 0.00 | 0.00 | 0.00 | 84 | 1014.6 |
| 20260901135141 | 80 | 94 | 0.0 | 4.0 | 0.00 | 0.00 | 0.00 | 85 | 1014.7 |
| 20260901134642 | 80 | 94 | 2.0 | 4.0 | 0.00 | 0.00 | 0.00 | 85 | 1014.7 |
| 20260901134141 | 79 | 94 | 3.0 | 5.0 | 0.00 | 0.00 | 0.00 | 85 | 1014.6 |
| 20260901133641 | 79 | 94 | 1.0 | 5.0 | 0.00 | 0.00 | 0.00 | 85 | 1014.6 |
| 20260901133141 | 79 | 94 | 5.0 | 5.0 | 0.00 | 0.00 | 0.00 | 86 | 1014.7 |
| 20260901132641 | 79 | 94 | 0.0 | 3.0 | 0.00 | 0.00 | 0.00 | 86 | 1014.6 |
| 20260901132141 | 78 | 94 | 1.0 | 2.0 | 0.00 | 0.00 | 0.00 | 87 | 1014.6 |
| 20260901131641 | 78 | 94 | 1.0 | 4.0 | 0.00 | 0.00 | 0.00 | 87 | 1014.6 |
| 20260901131141 | 78 | 94 | 0.0 | 4.0 | 0.00 | 0.00 | 0.00 | 87 | 1014.7 |
| 20260901130141 | 77 | 94 | 0.0 | 3.0 | 0.00 | 0.00 | 0.00 | 88 | 1014.5 |
| 20260901125641 | 77 | 94 | 0.0 | 3.0 | 0.00 | 0.00 | 0.00 | 88 | 1014.6 |
| 20260901124641 | 77 | 94 | 0.0 | 2.0 | 0.00 | 0.00 | 0.00 | 88 | 1014.8 |
| 20260901124140 | 77 | 94 | 0.0 | 2.0 | 0.00 | 0.00 | 0.00 | 88 | 1014.6 |
| 20260901123140 | 77 | 94 | 0.0 | 2.0 | 0.00 | 0.00 | 0.00 | 88 | 1014.6 |
| 20260901122640 | 77 | 94 | 0.0 | 2.0 | 0.00 | 0.00 | 0.00 | 88 | 1014.4 |
| 20260901121640 | 77 | 94 | 0.0 | 2.0 | 0.00 | 0.00 | 0.00 | 88 | 1014.2 |
| 20260901121141 | 77 | 94 | 0.0 | 2.0 | 0.00 | 0.00 | 0.00 | 88 | 1014.3 |
| 20260901120640 | 76 | 94 | 0.0 | 2.0 | 0.00 | 0.00 | 0.00 | 88 | 1014.2 |
| 20260901120140 | 76 | 94 | 1.0 | 2.0 | 0.00 | 0.00 | 0.00 | 88 | 1014.1 |
| 20260901115640 | 76 | 94 | 0.0 | 1.0 | 0.00 | 0.00 | 0.00 | 88 | 1014.2 |
| 20260901115140 | 76 | 94 | 1.0 | 1.0 | 0.00 | 0.00 | 0.00 | 88 | 1014.1 |
| 20260901114640 | 76 | 94 | 1.0 | 1.0 | 0.00 | 0.00 | 0.00 | 88 | 1014.1 |
| 20260901114140 | 76 | 94 | 1.0 | 1.0 | 0.00 | 0.00 | 0.00 | 88 | 1014.1 |
| 20260901113139 | 76 | 94 | 0.0 | 1.0 | 0.00 | 0.00 | 0.00 | 88 | 1013.9 |
| 20260901112639 | 76 | 94 | 0.0 | 3.0 | 0.00 | 0.00 | 0.00 | 88 | 1013.9 |
| 20260901112139 | 76 | 94 | 1.0 | 3.0 | 0.00 | 0.00 | 0.00 | 88 | 1013.9 |
| 20260901111640 | 76 | 94 | 0.0 | 2.0 | 0.00 | 0.00 | 0.00 | 88 | 1013.8 |
| 20260901111139 | 76 | 94 | 1.0 | 3.0 | 0.00 | 0.00 | 0.00 | 88 | 1013.8 |
| 20260901110639 | 76 | 94 | 0.0 | 3.0 | 0.00 | 0.00 | 0.00 | 88 | 1013.8 |
| 20260901110139 | 76 | 94 | 3.0 | 3.0 | 0.00 | 0.00 | 0.00 | 88 | 1013.7 |
| 20260901105639 | 76 | 94 | 0.0 | 1.0 | 0.00 | 0.00 | 0.00 | 88 | 1013.7 |
| 20260901105139 | 77 | 94 | 0.0 | 1.0 | 0.00 | 0.00 | 0.00 | 88 | 1013.8 |
| 20260901103638 | 77 | 94 | 0.0 | 3.0 | 0.00 | 0.00 | 0.00 | 87 | 1013.8 |
| 20260901103139 | 77 | 94 | 0.0 | 3.0 | 0.00 | 0.00 | 0.00 | 87 | 1013.6 |
| 20260901102638 | 77 | 94 | 0.0 | 2.0 | 0.00 | 0.00 | 0.00 | 88 | 1013.6 |
| 20260901102139 | 77 | 94 | 0.0 | 1.0 | 0.00 | 0.00 | 0.00 | 88 | 1013.7 |
| 20260901101639 | 77 | 94 | 0.0 | 2.0 | 0.00 | 0.00 | 0.00 | 88 | 1013.7 |
| 20260901101139 | 77 | 94 | 1.0 | 2.0 | 0.00 | 0.00 | 0.00 | 88 | 1013.7 |
| 20260901100638 | 77 | 94 | 0.0 | 2.0 | 0.00 | 0.00 | 0.00 | 87 | 1013.7 |
| 20260901100138 | 77 | 94 | 0.0 | 2.0 | 0.00 | 0.00 | 0.00 | 88 | 1013.6 |
| 20260901095638 | 77 | 94 | 0.0 | 1.0 | 0.00 | 0.00 | 0.00 | 87 | 1013.6 |
| 20260901094638 | 77 | 94 | 0.0 | 1.0 | 0.00 | 0.00 | 0.00 | 87 | 1013.6 |
| 20260901094138 | 77 | 94 | 0.0 | 2.0 | 0.00 | 0.00 | 0.00 | 87 | 1013.6 |
| 20260901093638 | 77 | 94 | 0.0 | 3.0 | 0.00 | 0.00 | 0.00 | 87 | 1013.6 |
| 20260901092638 | 77 | 94 | 0.0 | 3.0 | 0.00 | 0.00 | 0.00 | 87 | 1013.5 |
| 20260901091637 | 77 | 94 | 0.0 | 1.0 | 0.00 | 0.00 | 0.00 | 87 | 1013.4 |
| 20260901091138 | 77 | 94 | 0.0 | 0.0 | 0.00 | 0.00 | 0.00 | 87 | 1013.4 |
| 20260901085137 | 78 | 94 | 0.0 | 1.0 | 0.00 | 0.00 | 0.00 | 87 | 1013.4 |
| 20260901084137 | 78 | 94 | 1.0 | 2.0 | 0.00 | 0.00 | 0.00 | 87 | 1013.5 |
| 20260901083137 | 78 | 94 | 0.0 | 2.0 | 0.00 | 0.00 | 0.00 | 87 | 1013.5 |
| 20260901082137 | 78 | 94 | 0.0 | 2.0 | 0.00 | 0.00 | 0.00 | 88 | 1013.5 |
| 20260901081637 | 78 | 94 | 0.0 | 4.0 | 0.00 | 0.00 | 0.00 | 88 | 1013.5 |
| 20260901081137 | 78 | 94 | 0.0 | 4.0 | 0.00 | 0.00 | 0.00 | 88 | 1013.5 |
| 20260901075637 | 78 | 94 | 0.0 | 2.0 | 0.00 | 0.00 | 0.00 | 88 | 1013.5 |
| 20260901074136 | 77 | 94 | 3.0 | 3.0 | 0.00 | 0.00 | 0.00 | 89 | 1013.5 |
| 20260901073636 | 77 | 94 | 0.0 | 2.0 | 0.00 | 0.00 | 0.00 | 89 | 1013.6 |
| 20260901073136 | 77 | 94 | 0.0 | 3.0 | 0.00 | 0.00 | 0.00 | 89 | 1013.6 |
| 20260901072136 | 77 | 94 | 0.0 | 2.0 | 0.00 | 0.00 | 0.00 | 90 | 1013.6 |
| 20260901070636 | 77 | 94 | 0.0 | 0.0 | 0.00 | 0.00 | 0.00 | 90 | 1013.6 |
| 20260901070136 | 77 | 94 | 0.0 | 0.0 | 0.00 | 0.00 | 0.00 | 90 | 1013.5 |
| 20260901065635 | 78 | 94 | 0.0 | 0.0 | 0.00 | 0.00 | 0.00 | 90 | 1013.5 |
| 20260901065135 | 78 | 94 | 0.0 | 0.0 | 0.00 | 0.00 | 0.00 | 89 | 1013.6 |
| 20260901064635 | 78 | 94 | 0.0 | 0.0 | 0.00 | 0.00 | 0.00 | 89 | 1013.5 |
| 20260901064135 | 78 | 94 | 0.0 | 0.0 | 0.00 | 0.00 | 0.00 | 89 | 1013.6 |
| 20260901063636 | 78 | 94 | 0.0 | 0.0 | 0.00 | 0.00 | 0.00 | 89 | 1013.5 |
| 20260901063135 | 78 | 94 | 0.0 | 0.0 | 0.00 | 0.00 | 0.00 | 88 | 1013.5 |
| 20260901062635 | 79 | 94 | 0.0 | 0.0 | 0.00 | 0.00 | 0.00 | 88 | 1013.5 |
| 20260901061635 | 79 | 94 | 0.0 | 0.0 | 0.00 | 0.00 | 0.00 | 88 | 1013.5 |
| 20260901061136 | 79 | 94 | 0.0 | 0.0 | 0.00 | 0.00 | 0.00 | 88 | 1013.5 |
| 20260901060635 | 79 | 94 | 0.0 | 0.0 | 0.00 | 0.00 | 0.00 | 88 | 1013.5 |
| 20260901054634 | 79 | 94 | 0.0 | 2.0 | 0.00 | 0.00 | 0.00 | 88 | 1013.4 |
| 20260901054134 | 79 | 94 | 0.0 | 2.0 | 0.00 | 0.00 | 0.00 | 88 | 1013.3 |
| 20260901053634 | 79 | 94 | 0.0 | 5.0 | 0.00 | 0.00 | 0.00 | 88 | 1013.3 |
| 20260901053134 | 79 | 94 | 2.0 | 5.0 | 0.00 | 0.00 | 0.00 | 89 | 1013.1 |
| 20260901052634 | 79 | 94 | 0.0 | 3.0 | 0.00 | 0.00 | 0.00 | 89 | 1013.3 |
| 20260901052134 | 79 | 94 | 1.0 | 3.0 | 0.00 | 0.00 | 0.00 | 89 | 1013.2 |
| 20260901051634 | 78 | 94 | 0.0 | 3.0 | 0.00 | 0.00 | 0.00 | 89 | 1013.2 |
| 20260901050634 | 78 | 94 | 0.0 | 2.0 | 0.00 | 0.00 | 0.00 | 89 | 1013.2 |
| 20260901050134 | 78 | 94 | 1.0 | 2.0 | 0.00 | 0.00 | 0.00 | 90 | 1013.1 |
| 20260901045634 | 78 | 94 | 2.0 | 2.0 | 0.00 | 0.00 | 0.00 | 90 | 1013.1 |
| 20260901045134 | 78 | 94 | 0.0 | 1.0 | 0.00 | 0.00 | 0.00 | 90 | 1013.2 |
| 20260901044634 | 78 | 94 | 0.0 | 1.0 | 0.00 | 0.00 | 0.00 | 90 | 1013.1 |
| 20260901043634 | 77 | 94 | 0.0 | 0.0 | 0.00 | 0.00 | 0.00 | 90 | 1013.2 |
| 20260901043134 | 77 | 94 | 0.0 | 0.0 | 0.00 | 0.00 | 0.00 | 90 | 1013.3 |
| 20260901042633 | 77 | 94 | 0.0 | 1.0 | 0.00 | 0.00 | 0.00 | 90 | 1013.4 |
| 20260901042133 | 78 | 94 | 0.0 | 1.0 | 0.00 | 0.00 | 0.00 | 90 | 1013.3 |
| 20260901041633 | 78 | 94 | 1.0 | 1.0 | 0.00 | 0.00 | 0.00 | 90 | 1013.2 |
| 20260901041133 | 78 | 94 | 0.0 | 0.0 | 0.00 | 0.00 | 0.00 | 90 | 1013.2 |
| 20260901040633 | 78 | 94 | 0.0 | 1.0 | 0.00 | 0.00 | 0.00 | 90 | 1013.2 |
| 20260901040133 | 78 | 94 | 0.0 | 1.0 | 0.00 | 0.00 | 0.00 | 90 | 1013.3 |
| 20260901035633 | 78 | 94 | 0.0 | 0.0 | 0.00 | 0.00 | 0.00 | 91 | 1013.1 |
| 20260901034633 | 78 | 94 | 0.0 | 0.0 | 0.00 | 0.00 | 0.00 | 91 | 1013.1 |
| 20260901034133 | 78 | 94 | 0.0 | 0.0 | 0.00 | 0.00 | 0.00 | 91 | 1012.9 |
| 20260901033633 | 78 | 94 | 0.0 | 0.0 | 0.00 | 0.00 | 0.00 | 92 | 1012.9 |
| 20260901033133 | 78 | 94 | 0.0 | 0.0 | 0.00 | 0.00 | 0.00 | 91 | 1012.9 |
| 20260901032633 | 78 | 94 | 0.0 | 0.0 | 0.00 | 0.00 | 0.00 | 92 | 1012.9 |
| 20260901032132 | 78 | 94 | 0.0 | 0.0 | 0.00 | 0.00 | 0.00 | 91 | 1012.9 |